Home > Weather > Victoria > Past weeks

Flag for USA Past Weather in Victoria, Texas, USA — Yesterday and Last 2 Weeks

Now
76 °F

Fog.


Feels Like: 75 °F
Forecast: 74 / 93 °F
Wind: 3 mph from East

Location: Victoria Regional Airport

Current Time: Jul 2, 2016 at 2:29:22 AM

Latest Report: Jul 2, 2016 at 1:51 AM


Visibility: 5 mi

Pressure: 30.01 "Hg

Humidity: 94%

Dew Point: 74 °F

Location of VictoriaLocation

Past Weather in Victoria — Graph

°F

Victoria Temperature Yesterday

Maximum temperature yesterday: 93 °F (at 4:51 PM)
Minimum temperature yesterday: 73 °F (at 2:51 AM)
Average temperature yesterday: 83 °F

High & Low Weather Summary for the Past Weeks

 TemperatureHumidityPressure
High97 °F (Jun 18, 3:51 PM)97% (Jun 18, 2:51 AM)30.19 "Hg (Jun 18, 2:51 AM)
Low71 °F (Jun 19, 4:04 AM)42% (Jun 26, 5:51 PM)29.89 "Hg (Jun 17, 6:51 PM)
Average83 °F75%30.02 "Hg
* Reported Jun 17 12:51 AM — Jul 2 12:51 AM, Victoria, Weather by CustomWeather, © 2016

Note: Actual official high and low records may vary slightly from our data, if they occured in-between our weather recording intervals... More about our weather records

Advertising

Victoria Weather History for the Previous 24 Hours

Scroll right to see more
 ConditionsComfort  
Time TempWeatherWind HumidityBarometerVisibility
12:51 AM
Sat, Jul 2
78 °FFog.3 mph87%30.01 "Hg5 mi
11:51 PM
Fri, Jul 1
79 °FFog.3 mph88%30.01 "Hg5 mi
10:51 PM79 °FFog.7 mph88%30.00 "Hg6 mi
9:51 PM81 °FClear.5 mph82%29.98 "Hg6 mi
8:51 PM84 °FSunny.10 mph70%29.96 "Hg6 mi
7:51 PM87 °FSunny.14 mph61%29.95 "Hg6 mi
6:51 PM88 °FHaze.12 mph65%29.94 "Hg5 mi
5:51 PM91 °FHaze.10 mph56%29.94 "Hg6 mi
4:51 PM93 °FSunny.5 mph46%29.96 "Hg6 mi
3:51 PM92 °FSunny.8 mph54%29.97 "Hg6 mi
2:51 PM91 °FPartly sunny.6 mph57%29.98 "Hg6 mi
1:51 PM90 °FHaze.10 mph59%29.99 "Hg6 mi
12:51 PM90 °FCloudy.3 mph56%30.02 "Hg6 mi
11:51 AM88 °FPartly sunny.5 mph61%30.02 "Hg6 mi
10:51 AM87 °FScattered clouds.6 mph67%30.03 "Hg6 mi
9:51 AM84 °FBroken clouds.5 mph77%30.03 "Hg5 mi
8:51 AM81 °FSunny.3 mph85%30.01 "Hg4 mi
7:51 AM77 °FFog.6 mph96%30.01 "Hg2 mi
6:51 AM74 °FFog.3 mph97%29.99 "Hg2 mi
5:51 AM74 °FFog.5 mph94%29.97 "Hg2 mi
4:51 AM74 °FFog.No wind94%29.96 "Hg3 mi
3:59 AM74 °FFog.No wind97%29.97 "Hg4 mi
2:51 AM73 °FFog.No wind94%29.96 "Hg4 mi
Weather by CustomWeather, © 2016

See weather overviewHow to use our weather pages